QPF
0.00 0.00 0.00 0.00 0.00 0.01 0.01 0.01 0.01 0.01 0.01 0.01 0.00 0.00 0.00 0.00 0.00 0.01 0.00 0.01 0.01 0.02 0.01 0.02 0.02 0.03 0.05 0.06 0.04 0.03 0.02 0.01 0.01 0.01 0.01 0.02 0.02 0.02 0.03 0.03 0.03 0.03 0.03 0.03
0.00 0.00 0.00 0.00 0.00 0.00 0.01 0.01 0.01 0.01 0.01 0.01 0.00 0.00 0.00 0.00 0.00 0.01 0.00 0.01 0.01 0.01 0.01 0.01 0.03 0.03 0.05 0.06 0.05 0.03 0.02 0.01 0.02 0.01 0.01 0.01 0.02 0.03 0.02 0.02 0.04 0.04 0.03 0.03
0.00 0.00 0.00 0.00 0.00 0.00 0.01 0.00 0.01 0.01 0.01 0.01 0.00 0.00 0.00 0.01 0.01 0.01 0.01 0.01 0.01 0.01 0.01 0.01 0.02 0.03 0.04 0.04 0.03 0.02 0.02 0.02 0.02 0.02 0.02 0.02 0.02 0.02 0.02 0.03 0.03 0.03 0.04 0.04
0.00 0.00 0.00 0.00 0.00 0.00 0.00 0.01 0.01 0.01 0.01 0.00 0.01 0.01 0.01 0.01 0.01 0.01 0.00 0.01 0.01 0.01 0.01 0.01 0.01 0.02 0.03 0.02 0.02 0.02 0.02 0.02 0.03 0.04 0.03 0.02 0.02 0.03 0.04 0.04 0.03 0.03 0.03 0.03
0.01 0.01 0.01 0.00 0.00 0.00 0.00 0.01 0.01 0.01 0.00 0.00 0.01 0.01 0.01 0.01 0.00 0.00 0.00 0.01 0.02 0.02 0.02 0.02 0.02 0.02 0.02 0.02 0.02 0.02 0.02 0.02 0.03 0.04 0.04 0.03 0.04 0.06 0.05 0.04 0.03 0.04 0.03 0.03
0.01 0.01 0.01 0.01 0.01 0.01 0.01 0.01 0.01 0.01 0.01 0.01 0.00 0.00 0.00 0.00 0.00 0.00 0.00 0.01 0.02 0.02 0.02 0.02 0.02 0.02 0.01 0.01 0.01 0.01 0.01 0.02 0.02 0.03 0.05 0.06 0.06 0.05 0.04 0.03 0.04 0.04 0.04 0.04
0.01 0.01 0.01 0.01 0.01 0.01 0.02 0.01 0.00 0.00 0.01 0.01 0.01 0.01 0.00 0.00 0.00 0.01 0.01 0.02 0.02 0.03 0.03 0.03 0.02 0.01 0.01 0.01 0.01 0.01 0.02 0.02 0.02 0.03 0.05 0.06 0.06 0.05 0.04 0.04 0.04 0.05 0.05 0.04
0.01 0.01 0.01 0.01 0.01 0.01 0.01 0.00 0.00 0.01 0.01 0.01 0.01 0.01 0.01 0.01 0.01 0.02 0.03 0.03 0.04 0.05 0.04 0.04 0.03 0.02 0.01 0.01 0.01 0.01 0.01 0.01 0.02 0.02 0.03 0.05 0.05 0.04 0.04 0.04 0.05 0.05 0.03 0.03
0.01 0.01 0.01 0.01 0.01 0.01 0.00 0.00 0.00 0.01 0.01 0.01 0.01 0.01 0.01 0.01 0.01 0.02 0.02 0.03 0.04 0.06 0.05 0.05 0.04 0.03 0.02 0.01 0.01 0.01 0.01 0.01 0.01 0.02 0.02 0.03 0.04 0.04 0.04 0.04 0.05 0.04 0.03 0.03
0.02 0.01 0.01 0.01 0.01 0.01 0.00 0.00 0.00 0.01 0.01 0.01 0.01 0.01 0.01 0.01 0.01 0.01 0.01 0.01 0.02 0.02 0.02 0.03 0.03 0.03 0.02 0.01 0.01 0.01 0.01 0.01 0.02 0.02 0.02 0.02 0.03 0.04 0.05 0.05 0.05 0.04 0.04 0.04
0.01 0.01 0.01 0.01 0.01 0.01 0.01 0.01 0.00 0.00 0.01 0.01 0.01 0.01 0.01 0.01 0.01 0.01 0.01 0.01 0.01 0.01 0.01 0.02 0.02 0.02 0.02 0.02 0.02 0.02 0.02 0.02 0.02 0.02 0.03 0.03 0.04 0.04 0.05 0.05 0.07 0.08 0.07 0.06
0.01 0.01 0.01 0.01 0.01 0.01 0.01 0.01 0.01 0.00 0.00 0.01 0.01 0.01 0.01 0.01 0.01 0.01 0.01 0.01 0.01 0.01 0.01 0.01 0.01 0.01 0.01 0.02 0.02 0.02 0.02 0.02 0.02 0.03 0.03 0.05 0.06 0.05 0.06 0.05 0.05 0.07 0.08 0.07
0.00 0.01 0.01 0.01 0.01 0.01 0.01 0.01 0.01 0.01 0.01 0.01 0.01 0.01 0.01 0.01 0.01 0.01 0.01 0.01 0.01 0.01 0.01 0.00 0.00 0.01 0.01 0.01 0.02 0.02 0.02 0.02 0.03 0.03 0.04 0.04 0.05 0.06 0.05 0.05 0.05 0.05 0.06 0.05
0.00 0.01 0.01 0.01 0.01 0.01 0.01 0.01 0.01 0.02 0.01 0.00 0.01 0.01 0.01 0.01 0.01 0.01 0.01 0.01 0.01 0.01 0.01 0.01 0.01 0.01 0.01 0.01 0.01 0.01 0.02 0.02 0.02 0.03 0.03 0.04 0.04 0.05 0.05 0.05 0.04 0.04 0.04 0.05
0.01 0.01 0.01 0.02 0.01 0.01 0.01 0.01 0.01 0.02 0.01 0.01 0.01 0.01 0.01 0.01 0.01 0.01 0.01 0.01 0.01 0.01 0.01 0.01 0.01 0.01 0.01 0.01 0.01 0.01 0.01 0.01 0.01 0.02 0.02 0.02 0.03 0.03 0.04 0.04 0.04 0.04 0.04 0.04
0.01 0.01 0.01 0.02 0.02 0.01 0.01 0.01 0.01 0.02 0.02 0.01 0.01 0.01 0.02 0.02 0.01 0.01 0.01 0.01 0.01 0.01 0.01 0.01 0.01 0.01 0.02 0.01 0.01 0.01 0.01 0.01 0.01 0.01 0.02 0.02 0.02 0.02 0.03 0.03 0.03 0.04 0.04 0.04
0.01 0.01 0.01 0.02 0.03 0.01 0.01 0.01 0.01 0.01 0.01 0.01 0.01 0.01 0.01 0.02 0.02 0.02 0.01 0.02 0.02 0.01 0.01 0.01 0.02 0.02 0.02 0.02 0.01 0.01 0.01 0.02 0.02 0.02 0.02 0.02 0.02 0.02 0.03 0.03 0.03 0.04 0.04 0.04
0.01 0.01 0.02 0.04 0.04 0.03 0.03 0.02 0.01 0.01 0.01 0.01 0.01 0.01 0.01 0.01 0.01 0.02 0.02 0.02 0.02 0.01 0.01 0.01 0.01 0.01 0.02 0.02 0.02 0.02 0.02 0.03 0.03 0.03 0.03 0.03 0.03 0.03 0.02 0.02 0.03 0.04 0.04 0.04
0.02 0.03 0.03 0.04 0.04 0.03 0.03 0.02 0.01 0.00 0.01 0.01 0.01 0.01 0.01 0.00 0.00 0.00 0.01 0.01 0.02 0.02 0.02 0.01 0.01 0.01 0.02 0.02 0.02 0.02 0.02 0.01 0.02 0.03 0.03 0.03 0.03 0.02 0.02 0.02 0.03 0.03 0.03 0.03
0.02 0.01 0.01 0.01 0.01 0.01 0.01 0.00 0.00 0.00 0.00 0.00 0.01 0.01 0.01 0.00 0.00 0.00 0.01 0.01 0.01 0.01 0.02 0.01 0.01 0.01 0.01 0.01 0.02 0.02 0.02 0.02 0.02 0.03 0.03 0.03 0.03 0.03 0.03 0.03 0.02 0.02 0.02 0.02
0.02 0.01 0.01 0.01 0.01 0.01 0.01 0.01 0.00 0.00 0.00 0.00 0.00 0.01 0.01 0.01 0.01 0.01 0.01 0.01 0.01 0.01 0.01 0.01 0.01 0.01 0.00 0.01 0.01 0.01 0.01 0.01 0.01 0.01 0.02 0.03 0.04 0.03 0.03 0.02 0.02 0.01 0.01 0.01
0.02 0.02 0.01 0.01 0.01 0.01 0.01 0.01 0.01 0.01 0.00 0.00 0.00 0.01 0.01 0.01 0.01 0.01 0.01 0.01 0.01 0.02 0.01 0.01 0.01 0.01 0.01 0.01 0.01 0.01 0.01 0.01 0.01 0.02 0.02 0.03 0.04 0.04 0.03 0.03 0.02 0.02 0.02 0.02
0.02 0.02 0.02 0.02 0.01 0.02 0.02 0.01 0.01 0.01 0.01 0.00 0.00 0.00 0.01 0.01 0.01 0.01 0.02 0.02 0.02 0.02 0.02 0.02 0.01 0.01 0.01 0.01 0.01 0.01 0.01 0.01 0.01 0.01 0.02 0.02 0.02 0.02 0.03 0.03 0.03 0.03 0.04 0.03
0.02 0.02 0.02 0.02 0.02 0.01 0.01 0.01 0.01 0.01 0.01 0.00 0.00 0.00 0.00 0.01 0.01 0.01 0.01 0.02 0.02 0.02 0.02 0.02 0.01 0.01 0.01 0.01 0.01 0.01 0.01 0.00 0.00 0.01 0.01 0.01 0.01 0.02 0.03 0.03 0.03 0.03 0.03 0.03
0.01 0.01 0.01 0.01 0.02 0.02 0.01 0.01 0.01 0.01 0.01 0.00 0.01 0.01 0.01 0.01 0.01 0.01 0.01 0.01 0.02 0.02 0.02 0.02 0.02 0.02 0.01 0.01 0.01 0.01 0.01 0.01 0.01 0.01 0.01 0.01 0.02 0.02 0.03 0.03 0.03 0.03 0.03 0.03
0.01 0.01 0.01 0.01 0.02 0.02 0.02 0.02 0.02 0.01 0.01 0.01 0.01 0.01 0.01 0.02 0.02 0.02 0.01 0.02 0.02 0.02 0.02 0.01 0.02 0.02 0.02 0.02 0.02 0.02 0.02 0.02 0.02 0.02 0.01 0.02 0.02 0.02 0.03 0.03 0.03 0.03 0.04 0.04
0.01 0.01 0.01 0.01 0.01 0.02 0.02 0.02 0.02 0.02 0.01 0.01 0.02 0.02 0.02 0.02 0.02 0.03 0.02 0.02 0.02 0.01 0.01 0.01 0.01 0.02 0.02 0.03 0.03 0.02 0.02 0.02 0.02 0.02 0.02 0.02 0.03 0.03 0.03 0.03 0.03 0.03 0.03 0.03
MSLP
1015.58 1015.69 1015.80 1015.92 1016.03 1016.13 1016.20 1016.21 1016.16 1016.05 1015.87 1015.64 1015.37 1015.09 1014.80 1014.51 1014.22 1013.91 1013.57 1013.19 1012.74 1012.23 1011.67 1011.08 1010.50 1009.96 1009.51 1009.17 1008.98 1008.93 1009.02 1009.23 1009.53 1009.90 1010.30 1010.72 1011.14 1011.56 1011.97 1012.39 1012.81 1013.23 1013.66 1014.09
1015.88 1015.95 1015.99 1016.02 1016.04 1016.05 1016.03 1015.99 1015.93 1015.83 1015.71 1015.56 1015.40 1015.22 1015.04 1014.85 1014.63 1014.38 1014.09 1013.73 1013.30 1012.81 1012.26 1011.68 1011.09 1010.53 1010.03 1009.63 1009.35 1009.20 1009.18 1009.27 1009.48 1009.77 1010.14 1010.56 1011.02 1011.50 1012.00 1012.51 1013.02 1013.53 1014.01 1014.46
1016.14 1016.15 1016.12 1016.07 1016.01 1015.94 1015.87 1015.79 1015.71 1015.63 1015.55 1015.46 1015.37 1015.27 1015.16 1015.03 1014.86 1014.65 1014.38 1014.05 1013.64 1013.17 1012.64 1012.08 1011.50 1010.95 1010.43 1009.99 1009.64 1009.40 1009.28 1009.28 1009.39 1009.61 1009.93 1010.33 1010.81 1011.34 1011.91 1012.50 1013.09 1013.66 1014.20 1014.68
1016.36 1016.30 1016.20 1016.08 1015.95 1015.82 1015.70 1015.60 1015.51 1015.44 1015.38 1015.32 1015.27 1015.20 1015.12 1015.01 1014.86 1014.67 1014.41 1014.10 1013.71 1013.27 1012.78 1012.26 1011.71 1011.18 1010.67 1010.21 1009.82 1009.53 1009.33 1009.24 1009.26 1009.41 1009.68 1010.05 1010.52 1011.07 1011.67 1012.31 1012.95 1013.57 1014.15 1014.66
1016.52 1016.38 1016.22 1016.04 1015.85 1015.68 1015.53 1015.40 1015.30 1015.22 1015.15 1015.10 1015.04 1014.98 1014.89 1014.77 1014.62 1014.42 1014.17 1013.86 1013.50 1013.10 1012.66 1012.19 1011.71 1011.22 1010.74 1010.30 1009.90 1009.58 1009.33 1009.18 1009.13 1009.21 1009.41 1009.74 1010.17 1010.70 1011.29 1011.94 1012.59 1013.23 1013.82 1014.34
1016.59 1016.38 1016.15 1015.92 1015.70 1015.50 1015.32 1015.17 1015.05 1014.94 1014.85 1014.77 1014.68 1014.58 1014.46 1014.31 1014.13 1013.91 1013.66 1013.37 1013.05 1012.70 1012.32 1011.92 1011.51 1011.09 1010.67 1010.27 1009.90 1009.57 1009.30 1009.11 1009.01 1009.02 1009.15 1009.40 1009.77 1010.24 1010.78 1011.38 1012.00 1012.62 1013.19 1013.71
1016.53 1016.26 1015.99 1015.73 1015.48 1015.26 1015.07 1014.90 1014.74 1014.60 1014.47 1014.33 1014.19 1014.03 1013.86 1013.66 1013.44 1013.21 1012.95 1012.68 1012.40 1012.10 1011.80 1011.48 1011.16 1010.82 1010.49 1010.15 1009.82 1009.52 1009.25 1009.04 1008.90 1008.85 1008.90 1009.06 1009.33 1009.70 1010.15 1010.66 1011.21 1011.76 1012.30 1012.80
1016.32 1016.01 1015.72 1015.44 1015.20 1014.98 1014.77 1014.58 1014.40 1014.21 1014.02 1013.82 1013.61 1013.38 1013.14 1012.89 1012.64 1012.38 1012.13 1011.89 1011.64 1011.41 1011.18 1010.94 1010.71 1010.47 1010.21 1009.95 1009.68 1009.42 1009.17 1008.95 1008.78 1008.68 1008.65 1008.71 1008.86 1009.11 1009.43 1009.82 1010.26 1010.73 1011.20 1011.67
1015.95 1015.63 1015.34 1015.09 1014.86 1014.65 1014.45 1014.25 1014.04 1013.81 1013.56 1013.30 1013.01 1012.71 1012.42 1012.12 1011.83 1011.56 1011.31 1011.09 1010.89 1010.70 1010.54 1010.38 1010.22 1010.06 1009.88 1009.69 1009.48 1009.26 1009.04 1008.82 1008.63 1008.47 1008.37 1008.33 1008.36 1008.47 1008.66 1008.91 1009.22 1009.59 1009.99 1010.42
1015.45 1015.15 1014.90 1014.68 1014.49 1014.32 1014.14 1013.94 1013.71 1013.45 1013.15 1012.82 1012.48 1012.13 1011.78 1011.45 1011.14 1010.86 1010.62 1010.42 1010.25 1010.10 1009.98 1009.87 1009.76 1009.65 1009.53 1009.38 1009.22 1009.04 1008.84 1008.63 1008.42 1008.22 1008.05 1007.92 1007.84 1007.82 1007.87 1007.99 1008.19 1008.45 1008.78 1009.18
1014.86 1014.61 1014.41 1014.26 1014.13 1014.00 1013.85 1013.67 1013.44 1013.16 1012.84 1012.48 1012.10 1011.72 1011.35 1011.00 1010.69 1010.41 1010.18 1009.98 1009.83 1009.70 1009.59 1009.49 1009.40 1009.30 1009.20 1009.07 1008.93 1008.76 1008.57 1008.36 1008.13 1007.90 1007.68 1007.48 1007.31 1007.19 1007.13 1007.14 1007.24 1007.42 1007.70 1008.06
1014.21 1014.03 1013.91 1013.84 1013.78 1013.72 1013.62 1013.47 1013.26 1012.98 1012.66 1012.30 1011.92 1011.54 1011.18 1010.84 1010.54 1010.28 1010.06 1009.88 1009.72 1009.58 1009.45 1009.32 1009.20 1009.08 1008.94 1008.80 1008.64 1008.46 1008.26 1008.05 1007.81 1007.56 1007.31 1007.06 1006.83 1006.64 1006.51 1006.45 1006.48 1006.61 1006.85 1007.19
1013.56 1013.46 1013.43 1013.45 1013.47 1013.48 1013.44 1013.33 1013.16 1012.92 1012.63 1012.30 1011.96 1011.62 1011.29 1011.00 1010.74 1010.50 1010.30 1010.11 1009.94 1009.77 1009.59 1009.40 1009.22 1009.02 1008.83 1008.63 1008.42 1008.21 1007.99 1007.76 1007.52 1007.26 1006.99 1006.73 1006.48 1006.26 1006.09 1006.00 1006.00 1006.10 1006.32 1006.64
1012.94 1012.93 1013.00 1013.10 1013.21 1013.29 1013.31 1013.27 1013.15 1012.97 1012.74 1012.47 1012.19 1011.92 1011.67 1011.44 1011.24 1011.05 1010.87 1010.68 1010.48 1010.26 1010.01 1009.75 1009.47 1009.18 1008.89 1008.62 1008.35 1008.09 1007.84 1007.59 1007.34 1007.09 1006.82 1006.57 1006.32 1006.11 1005.94 1005.85 1005.84 1005.94 1006.14 1006.46
1012.36 1012.46 1012.62 1012.81 1013.00 1013.15 1013.24 1013.26 1013.21 1013.10 1012.95 1012.77 1012.58 1012.41 1012.25 1012.10 1011.97 1011.84 1011.68 1011.50 1011.27 1011.00 1010.68 1010.33 1009.95 1009.56 1009.18 1008.81 1008.47 1008.16 1007.87 1007.61 1007.36 1007.12 1006.88 1006.65 1006.44 1006.25 1006.11 1006.03 1006.04 1006.14 1006.33 1006.62
1011.86 1012.06 1012.31 1012.59 1012.85 1013.07 1013.23 1013.32 1013.34 1013.31 1013.24 1013.16 1013.08 1013.01 1012.96 1012.91 1012.85 1012.78 1012.66 1012.48 1012.23 1011.92 1011.53 1011.10 1010.63 1010.14 1009.67 1009.23 1008.83 1008.47 1008.16 1007.89 1007.65 1007.43 1007.22 1007.03 1006.86 1006.71 1006.60 1006.55 1006.57 1006.67 1006.85 1007.11
1011.43 1011.74 1012.09 1012.45 1012.78 1013.06 1013.28 1013.44 1013.53 1013.58 1013.60 1013.62 1013.64 1013.67 1013.72 1013.76 1013.78 1013.76 1013.67 1013.51 1013.25 1012.90 1012.47 1011.98 1011.44 1010.89 1010.35 1009.86 1009.41 1009.03 1008.70 1008.43 1008.21 1008.02 1007.85 1007.70 1007.57 1007.46 1007.39 1007.36 1007.39 1007.47 1007.62 1007.83
1011.10 1011.52 1011.96 1012.40 1012.80 1013.14 1013.42 1013.63 1013.79 1013.92 1014.02 1014.12 1014.23 1014.35 1014.48 1014.59 1014.67 1014.70 1014.64 1014.49 1014.23 1013.87 1013.41 1012.88 1012.31 1011.73 1011.17 1010.65 1010.19 1009.80 1009.48 1009.23 1009.02 1008.86 1008.73 1008.61 1008.52 1008.44 1008.39 1008.37 1008.39 1008.46 1008.57 1008.70
1010.86 1011.39 1011.93 1012.45 1012.91 1013.32 1013.65 1013.92 1014.13 1014.32 1014.48 1014.65 1014.82 1015.01 1015.19 1015.35 1015.47 1015.53 1015.49 1015.35 1015.10 1014.73 1014.28 1013.75 1013.18 1012.61 1012.05 1011.54 1011.10 1010.73 1010.43 1010.20 1010.03 1009.89 1009.79 1009.70 1009.62 1009.56 1009.52 1009.50 1009.50 1009.53 1009.58 1009.64
1010.72 1011.35 1011.98 1012.57 1013.10 1013.57 1013.95 1014.27 1014.54 1014.77 1014.98 1015.20 1015.41 1015.63 1015.84 1016.03 1016.16 1016.22 1016.20 1016.06 1015.82 1015.47 1015.04 1014.53 1014.00 1013.46 1012.94 1012.47 1012.07 1011.73 1011.47 1011.27 1011.12 1011.01 1010.92 1010.85 1010.78 1010.72 1010.67 1010.63 1010.61 1010.59 1010.59 1010.58
1010.64 1011.37 1012.08 1012.74 1013.34 1013.86 1014.30 1014.66 1014.98 1015.26 1015.51 1015.75 1015.99 1016.22 1016.44 1016.62 1016.75 1016.81 1016.78 1016.65 1016.41 1016.09 1015.68 1015.22 1014.74 1014.25 1013.80 1013.38 1013.04 1012.75 1012.53 1012.36 1012.23 1012.13 1012.05 1011.98 1011.91 1011.84 1011.77 1011.70 1011.65 1011.59 1011.53 1011.46
1010.62 1011.41 1012.18 1012.90 1013.56 1014.13 1014.62 1015.05 1015.41 1015.73 1016.02 1016.28 1016.54 1016.77 1016.98 1017.15 1017.26 1017.30 1017.26 1017.13 1016.91 1016.61 1016.25 1015.84 1015.42 1015.00 1014.61 1014.27 1013.97 1013.74 1013.55 1013.41 1013.30 1013.20 1013.12 1013.04 1012.95 1012.86 1012.77 1012.67 1012.58 1012.49 1012.39 1012.27
1010.60 1011.43 1012.24 1013.01 1013.71 1014.33 1014.88 1015.36 1015.77 1016.14 1016.47 1016.77 1017.03 1017.27 1017.47 1017.63 1017.72 1017.75 1017.70 1017.57 1017.36 1017.10 1016.78 1016.43 1016.07 1015.72 1015.40 1015.11 1014.87 1014.68 1014.52 1014.39 1014.29 1014.19 1014.09 1013.99 1013.88 1013.77 1013.65 1013.53 1013.40 1013.28 1013.14 1012.99
1010.56 1011.39 1012.21 1013.00 1013.73 1014.40 1015.00 1015.54 1016.02 1016.44 1016.82 1017.16 1017.46 1017.71 1017.92 1018.07 1018.16 1018.18 1018.13 1018.01 1017.82 1017.59 1017.31 1017.02 1016.72 1016.44 1016.17 1015.94 1015.74 1015.58 1015.44 1015.32 1015.20 1015.09 1014.97 1014.85 1014.71 1014.57 1014.42 1014.27 1014.12 1013.97 1013.81 1013.63
1010.47 1011.27 1012.07 1012.85 1013.60 1014.30 1014.96 1015.56 1016.10 1016.60 1017.05 1017.45 1017.79 1018.08 1018.31 1018.48 1018.58 1018.61 1018.57 1018.47 1018.31 1018.11 1017.88 1017.64 1017.40 1017.17 1016.95 1016.76 1016.59 1016.45 1016.31 1016.18 1016.06 1015.92 1015.78 1015.62 1015.46 1015.29 1015.11 1014.94 1014.76 1014.58 1014.40 1014.19
1010.31 1011.03 1011.79 1012.54 1013.30 1014.02 1014.73 1015.39 1016.01 1016.59 1017.12 1017.59 1018.01 1018.35 1018.63 1018.84 1018.97 1019.03 1019.02 1018.95 1018.83 1018.67 1018.49 1018.29 1018.10 1017.91 1017.73 1017.57 1017.42 1017.28 1017.15 1017.01 1016.86 1016.70 1016.53 1016.34 1016.15 1015.94 1015.74 1015.54 1015.33 1015.13 1014.91 1014.68
1010.06 1010.70 1011.39 1012.11 1012.85 1013.59 1014.33 1015.06 1015.76 1016.42 1017.04 1017.60 1018.10 1018.52 1018.86 1019.12 1019.30 1019.41 1019.44 1019.42 1019.34 1019.22 1019.09 1018.94 1018.78 1018.63 1018.49 1018.35 1018.21 1018.07 1017.93 1017.78 1017.61 1017.42 1017.22 1017.01 1016.79 1016.56 1016.33 1016.09 1015.86 1015.62 1015.37 1015.11
Thickness
5685 5692 5692 5691 5691 5687 5683 5677 5670 5675 5678 5686 5689 5689 5689 5688 5686 5685 5683 5681 5679 5676 5674 5672 5670 5669 5668 5667 5666 5665 5663 5662 5662 5661 5661 5660 5660 5661 5661 5662 5663 5663 5664 5664
5679 5687 5687 5684 5687 5686 5683 5681 5678 5678 5677 5686 5685 5684 5682 5681 5680 5679 5677 5676 5675 5672 5670 5667 5665 5664 5663 5661 5660 5659 5658 5657 5657 5656 5656 5655 5655 5656 5656 5657 5657 5658 5659 5659
5661 5673 5677 5667 5678 5679 5678 5680 5677 5671 5676 5680 5677 5677 5676 5675 5674 5673 5672 5672 5670 5667 5665 5663 5660 5659 5657 5656 5654 5654 5653 5652 5651 5651 5650 5650 5651 5651 5651 5652 5652 5653 5654 5655
5649 5659 5650 5665 5681 5681 5676 5676 5676 5675 5675 5675 5673 5672 5672 5671 5669 5667 5667 5666 5664 5663 5661 5658 5656 5654 5652 5650 5648 5648 5647 5646 5646 5646 5645 5645 5645 5646 5646 5647 5647 5648 5650 5651
5637 5640 5648 5664 5673 5672 5667 5666 5672 5669 5669 5667 5666 5665 5664 5667 5666 5663 5662 5661 5660 5658 5656 5653 5651 5649 5646 5643 5642 5641 5641 5641 5641 5641 5640 5639 5639 5641 5641 5642 5642 5643 5645 5646
5633 5636 5634 5653 5669 5672 5666 5656 5667 5665 5662 5660 5658 5650 5654 5662 5661 5658 5656 5655 5654 5652 5649 5646 5644 5642 5640 5638 5637 5637 5637 5637 5637 5637 5636 5635 5635 5636 5637 5637 5638 5639 5640 5642
5628 5629 5636 5654 5662 5664 5645 5648 5661 5660 5657 5654 5651 5651 5653 5655 5653 5651 5649 5648 5647 5644 5641 5639 5637 5635 5634 5633 5633 5633 5634 5633 5633 5632 5631 5632 5632 5632 5632 5633 5633 5634 5636 5637
5620 5621 5629 5652 5652 5646 5645 5652 5653 5652 5651 5648 5647 5648 5647 5646 5644 5643 5641 5640 5638 5635 5633 5632 5630 5628 5627 5627 5629 5629 5629 5628 5628 5627 5627 5628 5627 5627 5628 5628 5628 5629 5630 5632
5624 5627 5637 5643 5644 5645 5644 5644 5645 5644 5644 5643 5641 5640 5639 5637 5635 5634 5633 5631 5630 5628 5626 5626 5624 5623 5621 5622 5623 5623 5623 5622 5622 5622 5621 5621 5621 5621 5622 5622 5623 5624 5625 5626
5621 5628 5633 5636 5638 5639 5639 5639 5639 5639 5638 5636 5634 5633 5631 5628 5626 5625 5625 5624 5622 5620 5619 5619 5618 5617 5617 5617 5617 5617 5616 5616 5616 5615 5615 5615 5615 5616 5616 5617 5618 5619 5620 5621
5614 5622 5626 5630 5631 5632 5632 5633 5632 5632 5631 5630 5628 5625 5623 5621 5619 5618 5616 5616 5614 5613 5612 5612 5611 5611 5612 5612 5611 5610 5610 5610 5610 5610 5609 5608 5608 5609 5610 5611 5613 5614 5615 5617
5609 5617 5616 5619 5625 5626 5624 5623 5624 5623 5623 5623 5621 5619 5617 5614 5613 5611 5609 5608 5607 5607 5606 5606 5605 5605 5606 5607 5606 5604 5604 5604 5604 5603 5602 5602 5602 5604 5605 5606 5608 5609 5610 5611
5613 5615 5613 5616 5618 5619 5618 5617 5617 5616 5616 5615 5614 5613 5611 5608 5606 5605 5604 5603 5603 5602 5601 5601 5600 5599 5601 5601 5600 5599 5599 5598 5597 5597 5597 5596 5597 5598 5599 5601 5602 5603 5604 5606
5609 5609 5608 5609 5610 5612 5612 5612 5611 5610 5609 5609 5607 5606 5604 5602 5600 5599 5598 5599 5598 5597 5596 5595 5595 5595 5596 5596 5595 5594 5593 5592 5592 5591 5592 5592 5592 5593 5593 5595 5596 5597 5599 5600
5604 5604 5603 5604 5605 5604 5604 5603 5602 5601 5601 5600 5599 5598 5597 5595 5594 5594 5594 5593 5592 5591 5591 5590 5590 5590 5591 5591 5590 5589 5588 5587 5586 5586 5586 5587 5587 5587 5588 5589 5589 5590 5592 5594
5598 5598 5597 5596 5596 5596 5595 5595 5594 5593 5593 5593 5592 5591 5591 5590 5589 5588 5588 5587 5586 5585 5585 5585 5585 5586 5586 5585 5585 5584 5583 5582 5582 5581 5581 5581 5581 5582 5583 5583 5584 5585 5587 5588
5589 5589 5589 5589 5589 5588 5588 5588 5588 5587 5586 5586 5585 5585 5584 5583 5582 5582 5582 5581 5581 5581 5581 5580 5580 5581 5580 5580 5579 5578 5578 5577 5577 5576 5576 5576 5576 5576 5577 5577 5578 5579 5580 5581
5588 5588 5587 5586 5584 5583 5583 5583 5582 5582 5581 5581 5580 5579 5578 5577 5576 5576 5576 5575 5575 5575 5575 5575 5575 5575 5575 5575 5574 5573 5572 5571 5570 5570 5570 5570 5570 5570 5570 5571 5572 5573 5574 5574
5583 5582 5581 5580 5579 5578 5577 5577 5576 5576 5576 5575 5574 5573 5572 5572 5571 5571 5570 5569 5569 5568 5570 5570 5569 5569 5569 5569 5569 5567 5567 5566 5565 5565 5564 5564 5564 5564 5565 5565 5567 5568 5568 5568
5577 5577 5576 5575 5574 5573 5572 5572 5572 5571 5571 5570 5569 5567 5567 5567 5566 5565 5564 5563 5564 5564 5564 5563 5563 5563 5563 5563 5562 5561 5561 5561 5560 5559 5559 5558 5559 5559 5559 5560 5561 5561 5561 5561
5571 5571 5570 5569 5569 5569 5569 5568 5568 5567 5567 5565 5564 5563 5563 5562 5562 5560 5558 5558 5560 5559 5558 5557 5557 5557 5557 5556 5555 5555 5554 5554 5554 5553 5552 5552 5552 5552 5553 5553 5553 5553 5554 5554
5566 5565 5565 5565 5564 5564 5564 5564 5564 5563 5563 5562 5561 5560 5559 5557 5556 5555 5554 5554 5555 5554 5553 5553 5552 5551 5551 5550 5549 5548 5548 5547 5547 5547 5546 5546 5546 5546 5546 5546 5546 5547 5547 5547
5561 5561 5561 5560 5559 5559 5559 5559 5559 5559 5558 5558 5557 5556 5555 5554 5552 5550 5550 5551 5550 5549 5549 5548 5547 5545 5544 5543 5542 5541 5541 5540 5540 5540 5540 5540 5541 5540 5540 5540 5540 5539 5539 5539
5556 5556 5556 5555 5555 5554 5554 5554 5554 5554 5554 5554 5553 5553 5551 5549 5548 5547 5547 5546 5545 5544 5544 5543 5541 5540 5538 5537 5536 5535 5535 5534 5534 5533 5533 5533 5534 5534 5534 5533 5533 5532 5531 5532
5552 5551 5551 5550 5549 5549 5549 5549 5548 5548 5548 5547 5548 5548 5547 5546 5545 5544 5542 5542 5541 5540 5539 5538 5536 5534 5533 5532 5531 5529 5529 5528 5528 5527 5527 5526 5527 5527 5527 5527 5526 5525 5524 5524
5547 5546 5546 5546 5545 5545 5544 5543 5543 5543 5542 5542 5542 5542 5542 5541 5540 5539 5537 5537 5536 5535 5534 5533 5532 5529 5528 5527 5526 5524 5523 5521 5520 5520 5520 5519 5519 5519 5519 5519 5518 5518 5517 5517
5542 5541 5541 5541 5541 5541 5540 5540 5539 5538 5538 5537 5536 5536 5536 5535 5534 5533 5533 5532 5531 5530 5529 5529 5527 5525 5524 5523 5521 5519 5517 5516 5514 5513 5513 5512 5512 5512 5512 5512 5512 5511 5511 5511